Location: Deposit
(42.0600°N, 75.4280°W)
Time: 15:06:12
(UTC-05:00)

ISS - Pass Details

Date: 30 October 2019
Orbit: 412 x 421 km, 51.6° (Epoch: 12 November)

Event Time Altitude Azimuth Distance (km) Brightness Sun altitude
Exits shadow 06:56:37 - 299° (WNW) 1,621 -1.4 -7.1°
Reaches altitude 10° 06:57:01 10° 304° (WNW) 1,506 -1.5 -7.1°
Maximum altitude 06:59:26 18° 349° (N) 1,108 -1.8 -6.6°
Drops below altitude 10° 07:01:52 10° 35° (NE) 1,505 -0.6 -6.2°
Sets 07:04:26 0° 56° (NE) 2,369 0.8 -5.7°
